FW4179 Weather Reports


time (UTC)temp
C
wind
direction
speed
KPH
gust
KPH
rain 1hr
cm
rain 24hr
cm
rain mn
cm
humidity
%
barometer
mb
20260510093055 12 0 0.0 0.0 0.00 0.00 0.00 96 1015.5
20260510091551 12 0 0.0 0.0 0.00 0.00 0.00 96 1015.4
20260510090052 12 0 0.0 0.0 0.00 0.00 0.00 95 1015.4
20260510084603 12 0 0.0 0.0 0.00 0.00 0.00 96 1015.0
20260510083045 12 0 0.0 0.0 0.00 0.00 0.00 96 1014.8
20260510081551 12 0 0.0 0.0 0.00 0.00 0.00 96 1014.6
20260510080059 12 0 0.0 0.0 0.00 0.00 0.00 96 1014.5
20260510074600 13 0 0.0 0.0 0.00 0.00 0.00 95 1014.4
20260510073051 13 0 0.0 0.0 0.00 0.00 0.00 96 1014.3
20260510071549 13 0 0.0 0.0 0.00 0.00 0.00 95 1014.4
20260510064549 13 0 0.0 0.0 0.00 0.00 0.00 94 1014.5
20260510063050 13 0 0.0 0.0 0.00 0.00 0.00 94 1014.5
20260510061547 13 0 0.0 0.0 0.00 0.00 0.00 93 1014.5
20260510060048 13 0 0.0 0.0 0.00 0.00 0.00 93 1014.5
20260510054549 14 0 0.0 0.0 0.00 0.00 0.00 92 1014.5
20260510053053 14 0 0.0 0.0 0.00 0.00 0.00 92 1014.7
20260510051601 14 0 0.0 0.0 0.00 0.00 0.00 91 1014.7
20260510050059 15 0 0.0 0.0 0.00 0.00 0.00 90 1014.4
20260510044543 15 0 0.0 0.0 0.00 0.00 0.00 89 1014.4
20260510043046 15 0 0.0 0.0 0.00 0.00 0.00 88 1014.5
20260510041548 15 0 0.0 0.0 0.00 0.00 0.00 88 1014.4
20260510040100 15 0 0.0 0.0 0.00 0.00 0.00 87 1014.3
20260510034550 16 0 0.0 0.0 0.00 0.00 0.00 86 1014.3
20260510033054 16 0 0.0 8.0 0.00 0.00 0.00 85 1014.5
20260510031552 16 0 0.0 4.8 0.00 0.00 0.00 83 1014.4
20260510030048 17 0 0.0 6.4 0.00 0.00 0.00 81 1014.3
20260510024548 17 0 0.0 0.0 0.00 0.00 0.00 79 1014.0
20260510023045 17 0 0.0 0.0 0.00 0.00 0.00 79 1013.8
20260510021635 17 0 0.0 8.0 0.00 0.00 0.00 79 1013.7
20260510020051 18 0 0.0 0.0 0.00 0.00 0.00 75 1013.5
20260510014552 18 0 0.0 0.0 0.00 0.00 0.00 74 1013.2
20260510013057 18 0 0.0 0.0 0.00 0.00 0.00 72 1013.1
20260510011549 19 0 0.0 0.0 0.00 0.00 0.00 70 1012.8
20260510010054 20 0 0.0 0.0 0.00 0.00 0.00 68 1012.7
20260510004552 20 0 0.0 0.0 0.00 0.00 0.00 66 1012.6
20260510003052 21 0 0.0 0.0 0.00 0.00 0.00 67 1012.5
20260510001545 21 0 0.0 0.0 0.00 0.00 0.00 66 1012.4
20260510000048 21 0 0.0 0.0 0.00 0.00 0.00 66 1012.1
20260509234543 22 0 1.6 4.8 0.00 0.00 0.00 64 1012.0
20260509233044 22 0 0.0 3.2 0.00 0.00 0.00 65 1011.8
20260509231552 22 0 0.0 3.2 0.00 0.00 0.00 64 1011.8
20260509230052 22 290 1.6 6.4 0.00 0.00 0.00 62 1012.0
20260509224544 22 0 1.6 6.4 0.00 0.00 0.00 63 1011.8
20260509223052 22 0 0.0 9.7 0.00 0.00 0.00 64 1011.8
20260509221549 22 0 1.6 9.7 0.00 0.00 0.00 67 1011.8
20260509220053 22 227 4.8 8.0 0.00 0.00 0.00 65 1011.8
20260509214549 22 229 3.2 8.0 0.00 0.00 0.00 69 1011.6
20260509213105 22 236 4.8 9.7 0.00 0.00 0.00 67 1011.7
20260509211549 22 196 3.2 11.3 0.00 0.00 0.00 71 1011.7
20260509210050 22 248 1.6 6.4 0.00 0.00 0.00 66 1011.6
20260509204549 23 260 1.6 11.3 0.00 0.00 0.00 65 1011.4
20260509203050 23 284 4.8 12.9 0.00 0.00 0.00 65 1011.5
20260509201546 22 256 4.8 12.9 0.00 0.00 0.00 67 1011.8
20260509200052 23 260 4.8 14.5 0.00 0.00 0.00 69 1011.9
20260509194556 22 207 4.8 9.7 0.00 0.00 0.00 69 1012.0
20260509193054 22 283 4.8 14.5 0.00 0.00 0.00 67 1012.1
20260509191605 22 266 4.8 16.1 0.00 0.00 0.00 69 1012.3
20260509190051 22 213 3.2 12.9 0.00 0.00 0.00 73 1012.3
20260509184601 22 215 3.2 11.3 0.00 0.00 0.00 69 1012.1
20260509183055 21 275 4.8 14.5 0.00 0.00 0.00 72 1012.1
20260509181554 21 270 3.2 12.9 0.00 0.00 0.00 74 1011.8
20260509180057 21 276 3.2 9.7 0.00 0.00 0.00 74 1011.8
20260509174551 20 194 4.8 9.7 0.00 0.00 0.00 74 1011.8
20260509173103 19 188 1.6 6.4 0.00 0.00 0.00 79 1012.0
20260509171547 20 0 0.0 9.7 0.00 0.00 0.00 78 1012.2
20260509170053 20 242 1.6 9.7 0.00 0.00 0.00 76 1012.3
20260509164543 19 251 0.0 9.7 0.00 0.00 0.00 81 1012.4
20260509163043 18 261 3.2 9.7 0.00 0.00 0.00 81 1012.5
20260509161554 18 0 1.6 9.7 0.00 0.00 0.00 82 1012.5
20260509160047 18 0 1.6 11.3 0.00 0.00 0.00 82 1012.5
20260509154549 17 0 0.0 6.4 0.00 0.00 0.00 84 1012.5
20260509153057 17 238 1.6 9.7 0.00 0.00 0.00 84 1012.4
20260509151546 17 225 0.0 6.4 0.00 0.00 0.00 84 1012.1
20260509150045 17 236 3.2 9.7 0.00 0.00 0.00 85 1012.0
20260509144550 16 229 1.6 8.0 0.00 0.00 0.00 86 1011.8
20260509143048 16 0 0.0 0.0 0.00 0.00 0.00 88 1011.8
20260509141545 16 180 0.0 8.0 0.00 0.00 0.00 88 1011.9
20260509140056 15 215 1.6 12.9 0.00 0.00 0.00 89 1011.8
20260509134546 15 200 1.6 8.0 0.00 0.00 0.00 89 1011.6
20260509133051 15 244 0.0 12.9 0.00 0.00 0.00 89 1011.7
20260509131545 15 227 1.6 14.5 0.00 0.00 0.00 89 1011.9
20260509130044 14 233 4.8 11.3 0.00 0.00 0.00 89 1012.1
20260509124547 13 236 3.2 9.7 0.00 0.00 0.00 90 1011.9
20260509123046 13 0 1.6 6.4 0.00 0.00 0.00 91 1011.7
20260509121549 12 158 0.0 8.0 0.00 0.00 0.00 90 1011.5
20260509120047 12 139 3.2 11.3 0.00 0.00 0.00 90 1011.4
20260509114543 11 147 3.2 8.0 0.00 0.00 0.00 90 1011.4
20260509113047 11 0 0.0 0.0 0.00 0.00 0.00 89 1011.4
20260509111546 11 0 0.0 0.0 0.00 0.00 0.00 89 1011.5
20260509110050 11 0 0.0 0.0 0.00 0.00 0.00 89 1011.6
20260509104546 11 0 0.0 0.0 0.00 0.00 0.00 88 1011.4
20260509103052 11 0 0.0 3.2 0.00 0.00 0.00 88 1011.4
20260509101547 11 0 0.0 0.0 0.00 0.00 0.00 88 1011.5
20260509100049 11 136 0.0 4.8 0.00 0.00 0.00 88 1011.5
20260509094557 11 0 0.0 0.0 0.00 0.00 0.00 88 1011.5